Location: Jefferson Observatory
(34.1602°N, 83.6058°W)
Time: 00:26:58
(UTC-05:00)

ISS - Visible Passes

Search period start: 20 February 2018 00:00
Search period end: 02 March 2018 00:00
Orbit: 403 x 407 km, 51.6° (Epoch: 20 February)

Date Brightness Start Highest point End Pass type
(mag) Time Alt. Az. Time Alt. Az. Time Alt. Az.
24 Feb -2.5 06:39:45 10° SSW 06:42:52 42° SE 06:45:59 10° ENE visible
25 Feb -1.2 05:48:18 10° S 05:50:45 20° SE 05:53:12 10° E visible
26 Feb -3.8 06:31:30 10° WSW 06:34:43 61° NW 06:37:58 10° NE visible
27 Feb -3.3 05:41:19 34° SSW 05:42:28 58° SE 05:45:42 10° NE visible
28 Feb -1.0 04:51:46 18° E 04:51:46 18° E 04:53:03 10° ENE visible
28 Feb -2.5 06:24:27 13° W 06:26:42 24° NW 06:29:28 10° NNE visible
01 Mar -3.2 05:34:42 43° NNW 05:34:42 43° NNW 05:37:28 10° NE visible
